• In Österreich
  • Länderverzeichnis
  • Für 7 Tage
  • Wassertemperatur
  • Satellitenkarten
  • Wetterkarte
  • News
  • Widgets
  • user-avatar
    Anmelden

    Stündliche Wetter Chester

    Heute, 19 September, Mittwoch

    Zeit Temperatur Niederschläge Wind Luftdruck Luftfeuchtigkeit
    00:00 +15°C° 0 mm 5 m/S 754 mmHg 90%
    01:00 +14°C° 0 mm 5 m/S 754 mmHg 90%
    02:00 +14°C° 0 mm 5 m/S 754 mmHg 91%
    03:00 +14°C° 0 mm 5 m/S 754 mmHg 92%
    04:00 +14°C° 0 mm 5 m/S 753 mmHg 92%
    05:00 +14°C° 0 mm 6 m/S 753 mmHg 91%
    06:00 +14°C° 0 mm 6 m/S 752 mmHg 91%
    07:00 +15°C° 0 mm 7 m/S 752 mmHg 87%
    08:00 +16°C° 0 mm 9 m/S 752 mmHg 84%
    09:00 +16°C° 0 mm 10 m/S 751 mmHg 81%
    10:00 +16°C° 0.3 mm 10 m/S 751 mmHg 81%
    11:00 +17°C° 0.3 mm 11 m/S 752 mmHg 82%
    12:00 +17°C° 0.3 mm 11 m/S 752 mmHg 82%
    13:00 +16°C° 0.2 mm 11 m/S 752 mmHg 76%
    14:00 +16°C° 0.2 mm 10 m/S 753 mmHg 70%
    15:00 +16°C° 0.2 mm 10 m/S 753 mmHg 64%
    16:00 +15°C° 0 mm 9 m/S 754 mmHg 64%
    17:00 +13°C° 0 mm 8 m/S 755 mmHg 65%
    18:00 +12°C° 0 mm 7 m/S 755 mmHg 66%
    19:00 +12°C° 0 mm 7 m/S 756 mmHg 67%
    20:00 +11°C° 0 mm 7 m/S 757 mmHg 68%
    21:00 +11°C° 0 mm 6 m/S 757 mmHg 69%
    22:00 +10°C° 0.1 mm 6 m/S 757 mmHg 74%
    23:00 +10°C° 0.1 mm 6 m/S 757 mmHg 78%

    Morgen, 20 September, Donnerstag

    Zeit Temperatur Niederschläge Wind Luftdruck Luftfeuchtigkeit
    00:00 +10°C° 0.1 mm 5 m/S 757 mmHg 82%
    01:00 +11°C° 0.9 mm 4 m/S 757 mmHg 85%
    02:00 +11°C° 0.9 mm 4 m/S 757 mmHg 88%
    03:00 +10°C° 0.9 mm 3 m/S 756 mmHg 91%
    04:00 +10°C° 0.6 mm 3 m/S 756 mmHg 92%
    05:00 +10°C° 0.6 mm 2 m/S 756 mmHg 92%
    06:00 +12°C° 0.6 mm 2 m/S 756 mmHg 92%
    07:00 +12°C° 0.2 mm 2 m/S 756 mmHg 91%
    08:00 +12°C° 0.2 mm 1 m/S 756 mmHg 90%
    09:00 +12°C° 0.2 mm 1 m/S 755 mmHg 89%
    10:00 +13°C° 0.1 mm 1 m/S 755 mmHg 86%
    11:00 +14°C° 0.1 mm 2 m/S 754 mmHg 84%
    12:00 +14°C° 0.1 mm 2 m/S 754 mmHg 81%
    13:00 +14°C° 1.5 mm 2 m/S 753 mmHg 85%
    14:00 +14°C° 1.5 mm 3 m/S 751 mmHg 89%
    15:00 +14°C° 1.5 mm 4 m/S 750 mmHg 92%
    16:00 +15°C° 3.5 mm 5 m/S 749 mmHg 92%
    17:00 +16°C° 3.5 mm 7 m/S 747 mmHg 92%
    18:00 +17°C° 3.5 mm 8 m/S 746 mmHg 92%
    19:00 +17°C° 0.9 mm 8 m/S 745 mmHg 92%
    20:00 +16°C° 0.9 mm 8 m/S 744 mmHg 91%
    21:00 +16°C° 0.9 mm 8 m/S 743 mmHg 91%
    22:00 +15°C° 0.7 mm 9 m/S 743 mmHg 89%
    23:00 +13°C° 0.7 mm 9 m/S 743 mmHg 88%

    übermorgen, 21 September, Freitag

    Zeit Temperatur Niederschläge Wind Luftdruck Luftfeuchtigkeit
    00:00 +12°C° 0.7 mm 10 m/S 744 mmHg 86%
    01:00 +9°C° 0.1 mm 10 m/S 745 mmHg 85%
    02:00 +8°C° 0.1 mm 10 m/S 747 mmHg 83%
    03:00 +7°C° 0.1 mm 10 m/S 748 mmHg 82%
    04:00 +7°C° 0.1 mm 9 m/S 749 mmHg 80%
    05:00 +7°C° 0.1 mm 9 m/S 750 mmHg 79%
    06:00 +7°C° 0.1 mm 9 m/S 750 mmHg 77%
    07:00 +7°C° 0.3 mm 8 m/S 751 mmHg 77%
    08:00 +9°C° 0.3 mm 8 m/S 751 mmHg 77%
    09:00 +9°C° 0.3 mm 8 m/S 751 mmHg 76%
    10:00 +10°C° 0.4 mm 9 m/S 752 mmHg 76%
    11:00 +10°C° 0.4 mm 9 m/S 753 mmHg 76%
    12:00 +11°C° 0.4 mm 10 m/S 753 mmHg 76%
    13:00 +11°C° 0.4 mm 10 m/S 754 mmHg 73%
    14:00 +11°C° 0.4 mm 10 m/S 755 mmHg 71%
    15:00 +12°C° 0.4 mm 10 m/S 756 mmHg 68%
    16:00 +11°C° 0.1 mm 9 m/S 756 mmHg 69%
    17:00 +11°C° 0.1 mm 8 m/S 757 mmHg 71%
    18:00 +10°C° 0.1 mm 7 m/S 758 mmHg 72%
    19:00 +9°C° 0 mm 6 m/S 759 mmHg 73%
    20:00 +9°C° 0 mm 6 m/S 760 mmHg 75%
    21:00 +8°C° 0 mm 5 m/S 760 mmHg 77%
    22:00 +8°C° 0 mm 5 m/S 761 mmHg 78%
    23:00 +8°C° 0 mm 5 m/S 761 mmHg 79%

    22 September, Samstag

    Zeit Temperatur Niederschläge Wind Luftdruck Luftfeuchtigkeit
    00:00 +7°C° 0 mm 5 m/S 762 mmHg 79%
    01:00 +7°C° 0 mm 5 m/S 762 mmHg 80%
    02:00 +7°C° 0 mm 5 m/S 762 mmHg 80%
    03:00 +7°C° 0 mm 5 m/S 763 mmHg 80%
    04:00 +7°C° 0 mm 5 m/S 763 mmHg 81%
    05:00 +7°C° 0 mm 5 m/S 763 mmHg 82%
    06:00 +6°C° 0 mm 5 m/S 764 mmHg 82%
    07:00 +8°C° 0 mm 5 m/S 764 mmHg 77%
    08:00 +9°C° 0 mm 5 m/S 764 mmHg 72%
    09:00 +10°C° 0 mm 6 m/S 765 mmHg 66%
    10:00 +12°C° 0 mm 5 m/S 765 mmHg 64%
    11:00 +13°C° 0 mm 5 m/S 765 mmHg 61%
    12:00 +13°C° 0 mm 5 m/S 765 mmHg 58%
    13:00 +13°C° 0 mm 4 m/S 765 mmHg 59%
    14:00 +13°C° 0 mm 4 m/S 765 mmHg 59%
    15:00 +13°C° 0 mm 4 m/S 764 mmHg 59%
    16:00 +12°C° 0 mm 3 m/S 764 mmHg 62%
    17:00 +12°C° 0 mm 2 m/S 764 mmHg 66%
    18:00 +11°C° 0 mm 1 m/S 764 mmHg 69%
    19:00 +11°C° 0.3 mm 1 m/S 764 mmHg 72%
    20:00 +10°C° 0.3 mm 2 m/S 763 mmHg 75%
    21:00 +10°C° 0.3 mm 2 m/S 763 mmHg 77%
    22:00 +9°C° 1.8 mm 3 m/S 762 mmHg 82%
    23:00 +8°C° 1.8 mm 4 m/S 761 mmHg 87%

    23 September, Sonntag

    Zeit Temperatur Niederschläge Wind Luftdruck Luftfeuchtigkeit
    00:00 +8°C° 1.8 mm 5 m/S 759 mmHg 92%
    01:00 +8°C° 2.5 mm 7 m/S 757 mmHg 92%
    02:00 +7°C° 2.5 mm 8 m/S 754 mmHg 91%
    03:00 +8°C° 2.5 mm 9 m/S 752 mmHg 91%
    04:00 +10°C° 2.2 mm 9 m/S 749 mmHg 92%
    05:00 +12°C° 2.2 mm 9 m/S 747 mmHg 93%
    06:00 +13°C° 2.2 mm 9 m/S 744 mmHg 95%
    07:00 +15°C° 1.8 mm 9 m/S 742 mmHg 93%
    08:00 +16°C° 1.8 mm 9 m/S 739 mmHg 91%
    09:00 +17°C° 1.8 mm 9 m/S 736 mmHg 89%
    10:00 +16°C° 1 mm 8 m/S 735 mmHg 89%
    11:00 +15°C° 1 mm 7 m/S 735 mmHg 89%
    12:00 +14°C° 1 mm 6 m/S 734 mmHg 89%
    13:00 +12°C° 0.6 mm 9 m/S 736 mmHg 87%
    14:00 +10°C° 0.6 mm 13 m/S 738 mmHg 85%
    15:00 +9°C° 0.6 mm 16 m/S 741 mmHg 83%
    16:00 +9°C° 0.4 mm 16 m/S 745 mmHg 80%
    17:00 +8°C° 0.4 mm 15 m/S 749 mmHg 78%
    18:00 +6°C° 0.4 mm 14 m/S 753 mmHg 75%
    19:00 +7°C° 0 mm 13 m/S 756 mmHg 72%
    20:00 +7°C° 0 mm 12 m/S 759 mmHg 68%
    21:00 +7°C° 0 mm 10 m/S 762 mmHg 65%
    22:00 +7°C° 0 mm 9 m/S 763 mmHg 64%
    23:00 +6°C° 0 mm 8 m/S 765 mmHg 63%

    24 September, Montag

    Zeit Temperatur Niederschläge Wind Luftdruck Luftfeuchtigkeit
    00:00 +6°C° 0 mm 7 m/S 767 mmHg 63%
    01:00 +6°C° 0 mm 7 m/S 768 mmHg 63%
    02:00 +5°C° 0 mm 6 m/S 769 mmHg 63%
    03:00 +6°C° 0 mm 5 m/S 770 mmHg 63%
    04:00 +6°C° 0 mm 5 m/S 771 mmHg 67%
    05:00 +6°C° 0 mm 4 m/S 772 mmHg 71%
    06:00 +5°C° 0 mm 3 m/S 773 mmHg 75%
    07:00 +8°C° 0.1 mm 3 m/S 773 mmHg 74%
    08:00 +8°C° 0.1 mm 4 m/S 774 mmHg 73%
    09:00 +11°C° 0.1 mm 4 m/S 774 mmHg 72%
    10:00 +11°C° 0.1 mm 4 m/S 775 mmHg 69%
    11:00 +12°C° 0.1 mm 4 m/S 775 mmHg 65%
    12:00 +13°C° 0.1 mm 5 m/S 775 mmHg 62%
    13:00 +13°C° 0 mm 5 m/S 775 mmHg 63%
    14:00 +13°C° 0 mm 5 m/S 775 mmHg 63%
    15:00 +13°C° 0 mm 5 m/S 775 mmHg 63%
    16:00 +12°C° 0 mm 4 m/S 776 mmHg 68%
    17:00 +11°C° 0 mm 4 m/S 776 mmHg 72%
    18:00 +10°C° 0 mm 3 m/S 776 mmHg 76%
    19:00 +9°C° 0 mm 3 m/S 776 mmHg 78%
    20:00 +8°C° 0 mm 3 m/S 777 mmHg 80%
    21:00 +8°C° 0 mm 2 m/S 777 mmHg 82%
    22:00 +8°C° 0 mm 2 m/S 777 mmHg 83%
    23:00 +7°C° 0 mm 3 m/S 777 mmHg 84%
    Mehr zeigen